Regional Weather Roundup
Issued by NWS

Home | Current Version | Previous Version | Graphics & Text | Print | Product List | Glossary On
Versions: 1 2 3 4 5 6 7 8 9 10 11 12 13 14 15 16 17 18 19 20 21 22 23 24 25 26 27 28 29 30 31 32 33 34 35 36 37 38 39 40 41 42 43 44 45 46 47 48 49 50
000
ASUS43 KOAX 060110
RWRNE

WEATHER ROUNDUP FOR NEBRASKA
NATIONAL WEATHER SERVICE OMAHA NE
800 PM CDT SUN JUL 05 2015

NOTES: SATELLITE DATA IS BEING USED TO AUGMENT CLOUD COVER ABOVE
       12000 FEET.
       "FAIR" INDICATES FEW OR NO CLOUDS BELOW 12,000 FEET WITH NO
       SIGNIFICANT WEATHER AND/OR OBSTRUCTIONS TO VISIBILITY.

  * THESE STATIONS DO NOT REPORT WEATHER SUCH AS RAIN...SNOW OR FOG.

NEZ001>004-019>022-054>056-060200-
NEBRASKA PANHANDLE

CITY           SKY/WX    TMP DP  RH WIND       PRES   REMARKS
SCOTTSBLUFF    LGT RAIN  65  64  97 N23G33    29.94R
ALLIANCE       LGT RAIN  67  62  84 NW24G32   29.95R
CHADRON        CLOUDY    74  63  68 N17G28    29.92R
KIMBALL          N/A    N/A N/A N/A MISG        N/A
SIDNEY         CLOUDY    72  56  57 NW18G24   29.92R
$$

NEZ057>060-069>072-079>082-060200-
SOUTHWEST NEBRASKA

CITY           SKY/WX    TMP DP  RH WIND       PRES   REMARKS
NORTH PLATTE   CLOUDY    88  69  53 E9        29.70F HX  92
IMPERIAL       CLOUDY    84  57  39 W15G24    29.75R
LEXINGTON      PTSUNNY   91  67  45 SW17G23   29.73R HX  93
MCCOOK         CLOUDY    82  62  50 E14       29.77R
OGALLALA       TSTM      74  61  64 S23G41    29.81R
$$

NEZ005>010-023>029-035>040-094-060200-
NORTH CENTRAL NEBRASKA

CITY           SKY/WX    TMP DP  RH WIND       PRES   REMARKS
VALENTINE      CLOUDY    86  69  56 E7        29.72F HX  90
AINSWORTH      CLOUDY    84  70  62 SE7       29.72F
BROKEN BOW     CLOUDY    88  72  58 SE9       29.71F HX  94
O`NEILL        PTSUNNY   86  75  69 E8        29.73F HX  95
ORD            MOSUNNY   88  72  58 SE9       29.70F HX  94
THEDFORD       CLOUDY    85  72  63 S8        29.72F HX  91
$$

NEZ041-046>049-061>064-073>077-083>087-060200-
SOUTH CENTRAL NEBRASKA

CITY           SKY/WX    TMP DP  RH WIND       PRES   REMARKS
GRAND ISLAND   MOSUNNY   89  70  53 SE10      29.74R HX  94
AURORA         MOSUNNY   87  71  58 SE12      29.75R HX  93
HASTINGS       MOSUNNY   92  64  39 S12       29.74S HX  93
HEBRON         CLEAR     91  64  40 S9        29.76R HX  92
HOLDREGE       PTSUNNY   90  62  38 S8        29.74R HX  90
KEARNEY *      MOSUNNY   90  66  45 S12       29.73R HX  92
YORK           SUNNY     86  72  62 SE13      29.76R HX  92
$$

NEZ011>018-030>034-042>045-060200-
NORTHEAST NEBRASKA

CITY           SKY/WX    TMP DP  RH WIND       PRES   REMARKS
NORFOLK        PTSUNNY   85  76  74 SE10      29.76F HX  94
ALBION         SUNNY     86  73  64 SE12      29.75F HX  93
BLAIR          PTCLDY    86  71  61 S16       29.80S HX  91
COLUMBUS *     MOSUNNY   88  73  62 SE8G17    29.77S HX  96
FREMONT        PTCLDY    88  71  57 SE13G20   29.79R HX  94
TEKAMAH        PTCLDY    88  75  65 SE17      29.79R HX  97
WAYNE          MOSUNNY   84  77  81 SE10      29.78F HX  94
$$

NEZ050>053-065>068-078-088>093-060200-
SOUTHEAST NEBRASKA

CITY           SKY/WX    TMP DP  RH WIND       PRES   REMARKS
LINCOLN        PTCLDY    88  73  61 SE15      29.78S HX  95
OMAHA EPPLEY   MOCLDY    88  74  63 SE21G28   29.79F HX  96
BEATRICE       CLEAR     88  73  60 SE16G22   29.79R HX  95
FALLS CITY     PTCLDY    86  74  67 SE9       29.83S HX  94
NEBRASKA CITY  CLEAR     84  67  55 S10       29.83R
PLATTSMOUTH    PTCLDY    85  69  58 SE13G18   29.82R
$$

NEZ044-045-051>053-067-060200-
OMAHA AREA

CITY           SKY/WX    TMP DP  RH WIND       PRES   REMARKS
OMAHA EPPLEY   MOCLDY    88  74  63 SE21G28   29.79F HX  96
BLAIR          PTCLDY    86  71  61 S16       29.80S HX  91
FREMONT        PTCLDY    88  71  57 SE13G20   29.79R HX  94
MILLARD        PTCLDY    87  74  65 SE12G17   29.79S HX  95
OFFUTT AFB     PTCLDY    86  74  68 SE13      29.80R HX  94
PLATTSMOUTH    PTCLDY    85  69  58 SE13G18   29.82R
WAHOO          FAIR      87  73  63 SE15G22   29.78S HX  95
$$



USA.gov is the U.S. government's official web portal to all federal, state and local government web resources and services.